Overview Statistics Trail Chart Weather Telemetry Raw packets
 

This is the latest recevied weather packets stored in our database for station/object OE6JUE. If no packets are shown the sender has not sent any weather packets the latest 10 day(s).

<< 37 38 39 40 41 42 43 >>
Time Temp. Humidity Pressure Rain* Wind** Luminosity Snow
1788435381 28.89° C 37% 1021.3 hPa 0 mm - - -
1788435081 28.89° C 38% 1021.4 hPa 0 mm - - -
1788434781 28.33° C 39% 1021.4 hPa 0 mm - - -
1788434481 28.33° C 40% 1021.4 hPa 0 mm - - -
1788434181 28.33° C 40% 1021.6 hPa 0 mm - - -
1788433881 28.33° C 37% 1021.8 hPa 0 mm - - -
1788433581 28.89° C 37% 1021.9 hPa 0 mm - - -
1788433282 28.89° C 37% 1021.8 hPa 0 mm - - -
1788432982 28.33° C 40% 1021.9 hPa 0 mm - - -
1788432681 28.33° C 38% 1021.9 hPa 0 mm - - -
1788432381 28.33° C 37% 1022.1 hPa 0 mm - - -
1788432081 28.33° C 40% 1022.1 hPa 0 mm - - -
1788431781 27.78° C 43% 1022.2 hPa 0 mm - - -
1788431481 27.78° C 43% 1022.2 hPa 0 mm - - -
1788431181 27.22° C 47% 1022.3 hPa 0 mm - - -
1788430881 26.67° C 48% 1022.4 hPa 0 mm - - -
1788430581 26.67° C 47% 1022.5 hPa 0 mm - - -
1788430281 27.22° C 48% 1022.5 hPa 0 mm - - -
1788429982 27.22° C 49% 1022.5 hPa 0 mm - - -
1788429681 26.67° C 50% 1022.6 hPa 0 mm - - -
1788429381 26.67° C 49% 1022.5 hPa 0 mm - - -
1788429081 26.67° C 49% 1022.7 hPa 0 mm - - -
1788428781 26.67° C 48% 1022.7 hPa 0 mm - - -
1788428481 26.67° C 50% 1022.7 hPa 0 mm - - -
1788428181 26.11° C 49% 1022.8 hPa 0 mm - - -

* Rain latest hour (hover to see other rain measurements)
** Current wind speed in m/s (hover to see current wind gust speed)